Pineville, WV

9:56 PM EST on December 15, 2019 (GMT -0500)
Pineville

Weather History for KI16 - November, 2019

Change the Weather History Date:

Tuesday, November 12, 2019

  Actual Average (KBKW) Record (KBKW)
Temperature  
Mean Temperature 36 °F -  
Max Temperature 46 °F 49 °F 75 °F (1917)
Min Temperature 21 °F 33 °F 14 °F (1950)
Degree Days  
Heating Degree Days 29    
Moisture  
Dew Point 25 °F    
Average Humidity 82    
Maximum Humidity 96    
Minimum Humidity 70    
Precipitation  
Precipitation 0.00 in - - ()
Sea Level Pressure  
Sea Level Pressure 30.20 in    
Wind  
Wind Speed - ()    
Max Wind Speed -    
Max Gust Speed -    
Visibility 6.5 miles    
Events Rain , Snow    
Averages and records for this station are not official NWS values.
T = Trace of Precipitation, MM = Missing Value Source: Averaged Metar Reports

Daily Weather History Graph

Daily Weather History Graph

Search for Another Location

Airport or City:

Astronomy

Nov. 12, 2019 Rise Set
Actual Time 7:02 AM EST 5:17 PM EST
Civil Twilight 6:34 AM EST 5:45 PM EST
Nautical Twilight 6:03 AM EST 6:16 PM EST
Astronomical Twilight 5:32 AM EST 6:47 PM EST
Moon 5:43 PM EST (11/12) 6:53 AM EST (11/12)
Length of Visible Light 11h 10m
Length of Day
10h 15m
Full, 100% of the Moon is Illuminated
Nov 12
Full
Nov 19
Last Quarter
Nov 26
New
Dec 4
First Quarter
Dec 12
Full

Hourly Weather History & Observations

Time (EST) Temp. Dew Point Humidity Pressure Visibility Wind Dir Wind Speed Gust Speed Precip Events Conditions
12:15 AM 51.1 °F 48.9 °F 92% 29.95 in 10.0 mi North - - N/A Rain Rain
12:35 AM 49.8 °F 47.7 °F 92% 29.98 in 4.0 mi North - - N/A Rain Rain
12:55 AM 46.0 °F 42.8 °F 88% 30.00 in 7.0 mi North - - N/A Rain Rain
1:15 AM 45.5 °F 42.8 °F 90% 29.99 in 5.0 mi North - - N/A Rain Rain
1:35 AM 44.8 °F 42.8 °F 93% 30.00 in 4.0 mi North - - N/A Rain Light Rain
1:55 AM 44.1 °F 42.1 °F 93% 30.01 in 7.0 mi North - - N/A Rain Light Rain
2:15 AM 42.1 °F 38.1 °F 86% 30.02 in 10.0 mi North - - N/A   Overcast
2:35 AM 40.3 °F 36.7 °F 87% 30.04 in 7.0 mi North - - N/A   Overcast
2:55 AM 38.7 °F 35.4 °F 88% 30.05 in 5.0 mi North - - N/A   Overcast
3:35 AM 35.2 °F 32.4 °F 89% 30.06 in 5.0 mi North - - N/A Snow Light Snow
3:55 AM 34.7 °F 32.0 °F 90% 30.07 in 5.0 mi North - - N/A Snow Light Snow
4:15 AM 34.2 °F 31.6 °F 90% 30.07 in 5.0 mi North - - N/A Snow Light Snow
4:35 AM 33.8 °F 31.6 °F 92% 30.08 in 2.5 mi North - - N/A Snow Light Snow
4:55 AM 33.4 °F 32.0 °F 94% 30.10 in 1.5 mi North - - N/A Snow Light Snow
5:15 AM 32.9 °F 31.1 °F 93% 30.11 in 1.2 mi North - - N/A Snow Light Snow
5:35 AM 32.9 °F 31.6 °F 95% 30.11 in 1.0 mi North - - N/A Snow Snow
5:55 AM 32.9 °F 31.8 °F 96% 30.12 in 1.0 mi North - - N/A Snow Snow
6:15 AM 32.0 °F 30.4 °F 94% 30.12 in 1.2 mi North - - N/A Snow Light Snow
6:35 AM 32.0 °F 30.2 °F 93% 30.13 in 2.0 mi North - - N/A Snow Light Snow
6:55 AM 32.0 °F 29.8 °F 92% 30.14 in 3.0 mi North - - N/A Snow Light Snow
7:15 AM 32.0 °F 28.6 °F 87% 30.15 in 7.0 mi North - - N/A Snow Light Snow
7:35 AM 31.8 °F 27.9 °F 85% 30.16 in 5.0 mi North - - N/A Snow Light Snow
7:55 AM 31.3 °F 26.8 °F 83% 30.18 in 10.0 mi North - - N/A   Unknown
8:15 AM 31.1 °F 26.8 °F 84% 30.18 in 10.0 mi North - - N/A   Unknown
8:35 AM 30.9 °F 26.8 °F 85% 30.19 in 10.0 mi North - - N/A   Unknown
8:55 AM 30.4 °F 26.8 °F 86% 30.19 in 7.0 mi North - - N/A   Unknown
9:15 AM 30.2 °F 26.6 °F 86% 30.20 in 10.0 mi North - - N/A   Unknown
9:35 AM 29.5 °F 25.9 °F 86% 30.20 in 7.0 mi North - - N/A   Unknown
9:55 AM 29.1 °F 25.5 °F 86% 30.20 in 7.0 mi North - - N/A   Unknown
10:15 AM 28.9 °F 24.4 °F 83% 30.21 in 10.0 mi North - - N/A   Unknown
10:35 AM 28.8 °F 23.9 °F 82% 30.21 in 7.0 mi North - - N/A   Unknown
10:55 AM 27.7 °F 23.0 °F 83% 30.22 in 10.0 mi North - - N/A   Unknown
11:15 AM 27.3 °F 22.8 °F 83% 30.23 in 7.0 mi North - - N/A   Unknown
11:35 AM 27.0 °F 21.2 °F 79% 30.23 in 7.0 mi North - - N/A   Unknown
11:55 AM 26.8 °F 20.7 °F 78% 30.23 in 7.0 mi North - - N/A Snow Light Snow
12:15 PM 26.6 °F 20.8 °F 79% 30.23 in 7.0 mi North - - N/A Snow Light Snow
12:35 PM 26.4 °F 20.3 °F 78% 30.23 in 7.0 mi North - - N/A Snow Light Snow
1:15 PM 26.4 °F 19.8 °F 76% 30.23 in 2.5 mi North - - N/A Snow Light Snow
1:35 PM 26.4 °F 21.0 °F 80% 30.23 in 1.0 mi North - - N/A Snow Light Snow
1:55 PM 26.6 °F 19.6 °F 75% 30.23 in 4.0 mi North - - N/A Snow Light Snow
2:15 PM 26.6 °F 20.8 °F 79% 30.23 in 2.0 mi North - - N/A Snow Light Snow
2:35 PM 27.3 °F 18.7 °F 70% 30.23 in 10.0 mi North - - N/A   Unknown
2:55 PM 28.2 °F 19.8 °F 71% 30.24 in 4.0 mi North - - N/A Snow Light Snow
3:15 PM 27.5 °F 19.2 °F 71% 30.24 in 10.0 mi North - - N/A   Overcast
3:35 PM 27.9 °F 20.1 °F 73% 30.24 in 3.0 mi North - - N/A Snow Light Snow
3:55 PM 27.5 °F 20.8 °F 76% 30.24 in 5.0 mi North - - N/A Snow Light Snow
4:15 PM 27.1 °F 20.5 °F 76% 30.24 in 7.0 mi North - - N/A Snow Light Snow
4:35 PM 26.8 °F 19.8 °F 75% 30.25 in 10.0 mi North - - N/A   Unknown
4:55 PM 26.6 °F 21.2 °F 80% 30.26 in 1.8 mi North - - N/A Snow Light Snow
5:15 PM 26.4 °F 21.4 °F 81% 30.26 in 4.0 mi North - - N/A Snow Light Snow
5:35 PM 25.9 °F 21.4 °F 83% 30.28 in 2.0 mi North - - N/A Snow Light Snow
5:55 PM 25.5 °F 20.8 °F 82% 30.28 in 7.0 mi North - - N/A Snow Light Snow
6:15 PM 25.3 °F 19.0 °F 77% 30.29 in 5.0 mi North - - N/A Snow Light Snow
6:35 PM 24.3 °F 20.1 °F 84% 30.30 in 3.0 mi North - - N/A Snow Light Snow
7:15 PM 24.4 °F 17.1 °F 73% 30.32 in 10.0 mi North - - N/A   Unknown
7:35 PM 23.7 °F 15.8 °F 72% 30.33 in 10.0 mi North - - N/A   Unknown
7:55 PM 23.7 °F 17.1 °F 76% 30.33 in 10.0 mi North - - N/A   Unknown
8:15 PM 23.5 °F 15.3 °F 71% 30.34 in 10.0 mi North - - N/A   Unknown
8:35 PM 23.5 °F 15.4 °F 71% 30.34 in 10.0 mi North - - N/A   Unknown
8:55 PM 23.0 °F 14.5 °F 70% 30.35 in 10.0 mi North - - N/A   Unknown
9:15 PM 22.8 °F 14.5 °F 71% 30.36 in 10.0 mi North - - N/A   Unknown
9:35 PM 22.6 °F 14.5 °F 71% 30.36 in 10.0 mi North - - N/A   Unknown
9:55 PM 22.1 °F 14.7 °F 73% 30.37 in 10.0 mi North - - N/A   Unknown
10:15 PM 22.1 °F 14.7 °F 73% 30.37 in 10.0 mi North - - N/A Snow Light Snow
10:55 PM 21.9 °F 14.7 °F 74% 30.37 in 10.0 mi North - - N/A   Unknown
11:15 PM 21.7 °F 14.4 °F 73% 30.36 in 10.0 mi North - - N/A Snow Light Snow
11:55 PM 21.2 °F 12.7 °F 70% 30.36 in 10.0 mi North - - N/A   Unknown